H1 CPF 2 COD 2023 6 6 1 157 1 glonass143 NONE
H2 2007501 9143 46805 2023 6 5 23 59 42 2023 6 10 23 59 42 900 1 1 0 0 0 1
H5 1.4700
H9
10 0 60105  26982.000000  0    9688787.831  -6106290.132  22803152.866
10 0 60105  27882.000000  0   11927393.419  -4477258.141  22107697.657
10 0 60105  28782.000000  0   14184751.139  -3075996.798  20983295.625
10 0 60105  29682.000000  0   16395437.855  -1921851.632  19451662.950
10 0 60105  30582.000000  0   18492979.777  -1021771.873  17542423.300
10 0 60105  31482.000000  0   20412493.660   -370238.498  15292543.525
10 0 60105  32382.000000  0   22093281.510     50275.938  12745625.921
10 0 60105  33282.000000  0   23481270.724    268335.175   9951069.810
10 0 60105  34182.000000  0   24531197.469    322095.877   6963117.852
10 0 60105  35082.000000  0   25208441.427    257454.078   3839805.090
10 0 60105  35982.000000  0   25490434.260    125860.022    641830.935
10 0 60105  36882.000000  0   25367581.851    -18105.660  -2568623.829
10 0 60105  37782.000000  0   24843660.731   -119291.112  -5729111.516
10 0 60105  38682.000000  0   23935671.319   -124558.397  -8778139.148
10 0 60105  39582.000000  0   22673153.603     14716.058 -11656372.532
10 0 60105  40482.000000  0   21096993.756    340332.915 -14307798.438
10 0 60105  41382.000000  0   19257771.803    885252.348 -16680821.420
10 0 60105  42282.000000  0   17213719.921   1671954.142 -18729273.229
10 0 60105  43182.000000  0   15028377.343   2711246.014 -20413314.700
10 0 60105  44082.000000  0   12768040.561   4001571.614 -21700212.373
10 0 60105  44982.000000  0   10499115.892   5528848.383 -22564974.750
10 0 60105  45882.000000  0    8285485.325   7266842.980 -22990836.070
10 0 60105  46782.000000  0    6185995.676   9178069.239 -22969578.553
10 0 60105  47682.000000  0    4252175.548  11215171.616 -22501687.326
10 0 60105  48582.000000  0    2526274.775  13322736.643 -21596335.465
10 0 60105  49482.000000  0    1039707.189  15439456.992 -20271199.863
10 0 60105  50382.000000  0    -188039.511  17500557.933 -18552111.853
10 0 60105  51282.000000  0   -1149982.743  19440384.987 -16472549.636
10 0 60105  52182.000000  0   -1851690.338  21195044.826 -14072982.577
10 0 60105  53082.000000  0   -2310792.037  22704989.170 -11400080.263
10 0 60105  53982.000000  0   -2555979.460  23917433.843  -8505801.870
10 0 60105  54882.000000  0   -2625538.274  24788511.997  -5446383.688
10 0 60105  55782.000000  0   -2565475.895  25285071.683  -2281244.690
10 0 60105  56682.000000  0   -2427324.942  25386042.857    928168.355
10 0 60105  57582.000000  0   -2265716.200  25083316.996   4119573.582
10 0 60105  58482.000000  0   -2135824.349  24382102.955   7231061.194
10 0 60105  59382.000000  0   -2090794.890  23300744.634  10202291.591
10 0 60105  60282.000000  0   -2179261.250  21870008.515  12975661.280
10 0 60105  61182.000000  0   -2443057.062  20131871.180  15497414.210
10 0 60105  62082.000000  0   -2915220.221  18137857.640  17718677.416
10 0 60105  62982.000000  0   -3618372.950  15946999.772  19596401.535
10 0 60105  63882.000000  0   -4563546.308  13623499.684  21094188.691
10 0 60105  64782.000000  0   -5749499.012  11234194.809  22182992.503
10 0 60105  65682.000000  0   -7162559.893   8845929.417  22841677.394
10 0 60105  66582.000000  0   -8777001.611   6522940.922  23057426.963
10 0 60105  67482.000000  0  -10555931.318   4324368.547  22825993.861
10 0 60105  68382.000000  0  -12452662.536   2301986.834  22151786.399
10 0 60105  69282.000000  0  -14412512.577    498257.168  21047789.934
10 0 60105  70182.000000  0  -16374952.091  -1055222.518  19535323.967
10 0 60105  71082.000000  0  -18276018.439  -2338806.048  17643638.808
10 0 60105  71982.000000  0  -20050893.335  -3345380.530  15409358.587
10 0 60105  72882.000000  0  -21636537.836  -4080417.222  12875780.321
10 0 60105  73782.000000  0  -22974274.907  -4561489.965  10092041.604
10 0 60105  74682.000000  0  -24012211.365  -4817281.664   7112172.226
10 0 60105  75582.000000  0  -24707397.252  -4886120.920   3994047.573
10 0 60105  76482.000000  0  -25027631.254  -4814110.891    798263.912
10 0 60105  77382.000000  0  -24952835.349  -4652929.901  -2413042.426
10 0 60105  78282.000000  0  -24475939.817  -4457397.532  -5577408.554
10 0 60105  79182.000000  0  -23603240.379  -4282910.093  -8633266.869
10 0 60105  80082.000000  0  -22354211.525  -4182855.141 -11521150.590
10 0 60105  80982.000000  0  -20760783.227  -4206115.742 -14184858.563
10 0 60105  81882.000000  0  -18866111.001  -4394771.393 -16572555.817
10 0 60105  82782.000000  0  -16722890.787  -4782094.117 -18637787.739
10 0 60105  83682.000000  0  -14391289.356  -5390925.623 -20340387.649
10 0 60105  84582.000000  0  -11936577.087  -6232505.105 -21647259.906
10 0 60105  85482.000000  0   -9426562.334  -7305798.037 -22533023.325
10 0 60105  86382.000000  0   -6928934.711  -8597354.974 -22980502.638
99